Weather in Nitra

Slovakia     48°18′48″N   18°04′54″E
temp.,
°C
wind,
m/s
gust,
m/s
humid.,
%
clouds,
%
prec.,
mm/h
press.,
hPa
HPBL,
m
12 may, wed
wed1223:00+16e468493 0.0 100892
02:00+15e479192 0.0 1007112
05:00+14ene1194100 0.6 100716
08:00+17se238397 0.8 1007329
11:00+19se3365100 0.1 1007894
14:00+20ssw666546 0.0 1006928
17:00+18sw547691 0.0 1005665
20:00+13w478899 0.0 1005270
13 may, thu
thu1323:00+12wnw488295 0.0 1005386
02:00+11wnw4883100 0.0 1004422
05:00+11w4977100 0.0 1003601
08:00+12w4981100 0.0 1004704
11:00+13w5877100 0.0 1004908
14:00+12w5878100 0.0 1004860
17:00+12w5976100 0.0 1004833
20:00+11w51077100 0.0 1004759
14 may, fri
fri1423:00+11wsw4982100 0.1 1005698
02:00+10w51192100 0.9 1005710
05:00+9w3895100 2.9 1006624
08:00+9w51095100 7.8 1006885
11:00+9w41095100 4.4 1008977
14:00+10w41093100 7.1 1009723
17:00+12nnw51081100 0.7 1010750
20:00+10nw2289100 0.7 101018
15 may, sat
sat1523:00+8wsw2291100 0.0 101113
02:00+9nnw0092100 0.0 101210
05:00+9ene0092100 0.0 101210
08:00+11ne008698 0.0 1012209
11:00+15w127199 0.0 1012918
14:00+18nw2361100 0.6 10111271
17:00+18nw1156100 0.1 10101293
20:00+14wnw117314 0.2 101011
16 may, sun
sun1623:00+11se11832 0.0 101010
02:00+10ese228933 0.0 101013
05:00+9e3392100 0.0 100944
08:00+13se2381100 0.0 1010283
11:00+16w457493 0.9 1010927
14:00+17nw466441 1.4 10101308
17:00+18nw2358100 0.1 1009951
20:00+14se11722 0.1 101011